Theta_e
324 324 325 325 326 326 326 327 328 329 330 330 330 331 331 330 330 330 329 330 330 330 330 330 330 330 330 330 330 330 332 332 332 331 332 331 330 330 329 329 329 329 331 332 332 332 332 333 333 332 331 331 332 333 332 331 330 332 333 331 330 330 329 328 329 330 330 330 329 329 328 328 328 327 327 326 325 326 327 327 326 326 325 324 323
324 324 324 324 325 325 326 326 327 329 330 330 330 330 330 329 330 330 329 330 330 330 330 329 330 330 330 330 330 331 331 331 331 331 332 331 331 330 330 330 330 330 330 332 332 332 332 332 333 332 332 333 333 333 333 332 331 332 331 330 329 330 330 329 329 330 330 329 329 329 328 328 326 326 326 324 323 325 326 325 324 323 323 322 322
323 323 324 324 325 325 325 326 328 329 330 330 330 329 329 329 329 329 329 329 329 330 329 330 330 330 331 330 329 329 330 330 331 332 332 331 331 331 331 331 332 331 330 331 331 331 331 330 331 333 333 334 334 334 334 332 332 331 328 328 328 328 330 330 330 330 329 329 330 329 328 327 326 326 325 322 322 325 325 323 322 324 324 321 319
323 323 323 323 324 324 325 326 327 328 329 329 329 329 328 329 329 329 329 329 329 329 329 330 330 330 331 330 329 330 330 330 331 332 332 332 332 332 332 331 332 331 330 330 329 329 328 328 330 333 333 333 334 334 333 332 331 330 327 327 328 328 329 329 330 331 330 330 329 328 328 326 325 325 324 322 322 324 323 321 321 324 325 321 317
323 323 323 323 324 324 324 325 325 326 327 327 327 328 327 328 328 328 328 328 328 329 329 329 329 330 330 330 330 330 330 330 331 331 331 331 331 331 331 331 331 331 330 329 328 328 329 329 331 332 332 332 333 333 332 332 330 329 327 328 329 329 328 329 330 330 329 329 329 327 327 325 324 325 324 322 322 322 321 319 320 323 321 321 318
322 322 322 322 322 323 323 322 322 322 323 324 324 325 326 326 327 327 326 328 328 328 329 329 329 330 329 329 329 329 329 329 330 331 330 331 330 331 330 330 330 330 330 330 331 331 331 331 330 330 330 331 332 331 330 330 329 328 328 330 329 329 329 329 329 329 328 328 327 326 325 324 324 325 323 323 321 322 321 319 320 320 319 321 320
321 321 321 321 321 321 320 320 320 320 320 321 322 322 323 324 325 325 325 326 327 327 328 327 327 327 328 327 328 328 328 328 329 330 330 330 329 330 329 328 329 329 329 330 330 331 330 330 330 330 330 330 330 328 328 329 328 328 328 329 329 330 330 328 327 327 327 326 325 324 323 323 323 322 322 322 320 321 320 318 319 319 318 321 320
321 321 320 320 320 319 319 318 318 319 319 319 319 319 320 320 321 322 323 325 326 326 326 326 326 326 326 326 326 326 326 327 328 328 329 328 328 328 327 327 327 327 327 329 330 330 329 328 329 329 329 328 328 328 328 328 328 328 328 329 329 329 329 327 325 326 326 326 325 324 323 323 323 322 321 321 319 320 319 318 318 318 317 319 320
320 320 319 318 318 318 317 317 317 317 317 317 317 316 316 316 317 318 320 322 323 324 325 325 325 325 324 325 324 323 324 325 326 326 326 326 325 326 326 326 327 326 327 328 329 329 328 327 328 328 328 328 328 328 328 329 330 329 329 330 330 329 328 327 325 325 325 326 326 326 325 324 323 322 322 322 320 320 319 318 318 317 316 319 320
319 318 318 317 317 317 316 316 316 316 316 316 315 314 314 314 314 315 316 318 319 321 322 322 321 320 321 322 322 322 322 322 323 324 325 324 324 325 325 325 326 327 327 328 328 327 327 328 328 328 329 329 329 329 329 330 330 330 329 330 330 329 327 326 325 324 324 324 324 325 326 325 325 324 324 324 322 321 321 320 319 319 317 317 319
318 317 317 317 316 316 316 315 315 315 315 315 314 313 312 312 312 313 314 315 316 318 319 319 317 317 318 318 319 320 321 321 322 323 324 324 324 324 324 325 326 326 326 326 326 327 328 328 328 327 327 327 328 330 329 329 329 329 328 327 328 328 326 326 325 324 324 324 324 323 324 325 326 326 325 324 323 322 322 321 320 321 319 318 319
317 316 316 316 316 316 315 315 315 315 314 314 313 312 311 311 311 311 311 312 312 313 314 314 314 315 316 316 317 318 320 320 321 321 322 322 323 324 324 324 324 324 324 325 325 326 326 326 326 325 324 324 325 327 328 328 328 329 328 326 327 327 326 325 325 324 324 324 323 323 323 324 325 325 323 323 322 320 321 321 321 320 321 320 320
315 315 315 315 315 315 315 315 315 314 314 313 312 311 310 309 309 309 309 310 310 310 310 310 311 312 314 315 316 318 319 320 321 321 322 322 323 324 324 323 324 324 324 324 324 325 325 325 324 323 322 321 321 323 324 325 325 325 325 325 325 325 325 325 325 324 323 324 323 324 325 325 324 324 323 322 322 321 321 322 321 321 320 320 320
314 314 314 314 315 314 314 314 314 314 313 312 312 310 310 309 308 308 308 308 308 308 308 308 309 310 311 312 315 317 318 320 321 322 323 323 323 324 324 324 323 322 322 322 322 323 324 323 323 323 322 321 320 320 320 322 323 322 322 322 321 322 323 324 324 323 323 324 324 324 324 324 324 324 323 323 323 323 322 321 320 320 319 319 319
313 313 313 313 314 314 313 313 313 313 312 311 311 310 309 308 307 307 306 306 306 306 306 306 307 309 309 311 313 315 317 318 320 321 322 322 322 322 323 323 323 321 321 321 321 322 322 323 322 322 322 322 322 321 321 323 323 321 319 319 319 320 322 324 324 324 324 325 325 325 324 324 324 324 324 323 323 323 323 321 320 320 320 319 318
313 312 312 312 313 313 313 313 312 312 312 310 310 309 308 308 308 307 306 306 305 305 304 305 306 308 309 309 310 312 314 316 318 319 319 319 320 321 322 322 322 321 320 320 320 320 320 321 322 321 321 322 323 324 324 324 323 321 318 318 318 318 319 321 323 324 324 325 325 325 324 323 323 323 323 322 322 323 323 321 320 319 319 318 317
312 311 311 312 312 312 312 312 311 311 310 309 308 308 307 307 308 307 306 306 305 304 304 303 304 306 308 308 308 309 311 314 316 317 317 317 317 318 319 319 319 318 318 318 318 317 316 317 319 320 320 320 321 323 324 323 322 322 321 319 318 318 317 317 319 320 320 320 320 320 320 320 320 320 320 320 320 322 322 320 319 319 318 318 317
311 311 311 311 311 310 311 310 310 309 308 307 307 307 307 307 307 306 306 305 304 304 303 302 302 303 304 305 307 308 309 311 313 314 314 315 315 314 315 316 316 315 315 316 317 315 314 315 316 316 317 318 319 321 321 321 321 321 321 319 318 318 318 318 318 318 318 317 317 317 317 317 317 317 317 318 319 320 320 319 318 318 318 318 315
311 310 310 310 309 309 308 308 308 307 306 305 305 306 306 306 306 306 306 305 304 303 302 302 301 301 301 302 304 306 307 308 310 312 312 313 314 313 313 313 313 312 311 312 314 314 314 313 314 314 314 315 316 317 317 318 320 320 319 318 318 318 318 319 319 318 317 317 316 316 315 315 314 314 314 315 317 318 317 317 316 317 317 317 315
310 309 309 309 308 308 307 306 305 305 304 303 303 303 303 304 304 304 304 304 304 302 301 301 300 300 300 300 301 302 303 305 307 310 311 311 312 312 311 310 309 309 309 308 309 310 311 311 312 312 313 314 314 315 315 316 318 319 319 318 318 317 317 317 317 317 316 316 315 314 313 312 312 311 311 312 313 314 314 314 314 314 315 315 315
308 307 306 306 306 306 306 305 304 304 303 303 303 302 302 302 302 302 302 303 303 302 300 300 299 299 299 299 299 300 301 302 304 306 308 309 309 310 310 309 308 308 307 305 305 306 307 307 308 309 311 312 313 314 315 316 317 317 316 315 315 315 315 314 314 314 313 313 313 312 311 311 310 310 309 309 309 310 311 311 311 310 311 312 312
307 306 305 304 304 304 304 304 303 303 302 303 303 303 302 302 302 302 302 302 302 301 300 300 300 299 298 298 298 299 300 300 301 302 303 305 306 306 307 307 307 306 305 304 304 304 304 305 305 306 307 309 310 311 312 313 313 312 311 312 312 312 312 311 311 311 311 310 311 310 310 309 309 308 308 307 307 307 308 308 308 309 309 309 308
306 305 305 304 304 304 304 303 303 302 301 301 302 302 302 302 302 302 302 302 302 302 301 301 301 301 300 298 298 298 299 299 300 300 301 302 303 303 304 304 305 304 304 303 303 303 302 302 302 303 304 304 305 306 307 307 307 307 306 307 307 308 308 308 308 308 308 308 308 309 308 308 307 307 307 307 306 306 306 306 307 307 306 306 304
304 304 303 303 303 303 303 304 303 303 301 300 300 300 300 300 301 301 302 302 301 302 301 301 301 301 301 299 299 298 298 298 299 299 300 300 300 301 302 302 303 303 302 302 302 302 301 301 301 301 301 302 303 304 304 303 303 303 303 303 303 304 304 304 305 306 306 306 307 307 307 306 306 306 306 305 305 305 305 305 305 305 305 304 304
302 302 302 301 301 301 301 301 302 302 302 300 298 298 298 298 299 300 301 301 301 302 301 300 300 301 301 300 299 299 298 299 299 299 299 299 300 300 300 301 301 301 302 302 301 301 301 301 301 301 301 301 302 302 302 301 301 301 301 301 302 302 303 303 303 304 305 305 305 306 306 306 306 305 305 305 305 304 304 303 303 303 303 303 302
301 301 301 301 300 299 299 299 299 300 301 300 298 297 297 297 297 298 299 300 301 302 302 301 300 301 301 301 300 298 298 299 300 300 300 300 300 300 300 300 301 300 301 301 301 301 301 301 301 301 301 301 301 300 300 300 300 299 299 300 300 301 301 302 303 303 304 304 304 305 305 305 305 304 304 304 304 304 304 303 303 303 302 302 301
301 301 301 301 301 300 300 299 298 299 299 299 299 298 297 296 296 296 297 298 299 300 301 301 300 300 301 301 299 298 297 298 299 299 300 300 300 300 300 301 300 300 300 300 300 300 300 300 300 300 300 300 300 300 300 300 300 300 300 299 299 299 299 300 301 302 303 303 303 303 304 304 303 303 303 303 303 303 303 303 303 303 303 302 301
302 302 301 302 302 302 301 301 300 299 299 299 299 299 297 296 296 296 296 296 297 298 299 300 300 298 298 299 298 297 296 296 297 297 298 298 299 299 300 300 301 301 301 301 300 300 300 300 300 300 300 300 300 300 301 300 300 300 300 300 300 300 299 299 300 301 302 302 302 302 302 303 303 302 302 302 302 302 302 301 301 301 302 302 301
302 302 302 302 302 301 302 302 301 300 299 299 298 298 298 297 296 296 296 296 296 296 297 298 299 298 297 296 297 296 296 296 296 296 296 297 297 297 298 298 299 300 301 301 301 301 301 300 300 300 301 301 301 301 301 301 301 300 300 300 300 300 299 299 300 301 302 302 302 302 302 302 302 301 301 301 301 301 301 301 301 301 301 301 301
301 301 302 302 301 301 301 301 302 301 300 299 298 298 297 297 297 296 296 296 296 296 296 296 297 298 297 296 296 296 296 296 296 296 297 297 297 296 296 297 298 299 300 301 301 301 301 301 301 301 301 301 301 301 301 301 300 300 300 299 299 299 298 298 299 300 301 301 301 301 301 301 301 301 301 300 300 300 301 301 301 301 300 301 301
301 301 301 301 301 301 301 301 301 301 301 300 300 299 298 297 297 297 296 296 296 296 296 296 295 296 297 297 297 297 297 297 297 297 297 297 297 297 297 297 298 299 300 300 301 301 301 301 301 301 301 301 301 301 301 301 301 300 300 300 299 299 299 298 299 299 299 300 300 300 300 300 300 300 300 300 299 300 299 300 300 300 300 300 300
302 302 301 301 301 301 301 300 300 300 300 301 301 300 299 298 297 297 297 296 296 296 296 296 295 295 295 296 296 296 297 297 297 297 297 297 298 298 298 298 299 299 299 300 300 300 300 300 300 300 300 301 301 301 301 301 301 300 300 300 300 300 299 298 298 299 298 299 299 299 299 299 299 299 299 299 299 299 299 299 299 299 299 299 299
301 301 302 301 301 301 301 300 300 300 300 300 300 301 301 300 299 298 297 297 296 296 296 296 296 295 295 295 295 296 296 297 297 297 297 297 298 298 299 299 299 298 298 299 299 299 299 299 299 299 299 299 299 299 300 300 300 299 300 300 300 299 299 298 298 298 298 298 298 298 299 299 298 298 298 298 298 298 298 298 298 298 298 298 298
300 300 300 301 301 301 301 300 300 300 300 299 300 300 300 300 299 299 299 298 297 297 297 297 296 296 295 295 295 296 296 296 297 297 297 298 298 298 298 298 298 298 298 298 298 298 298 298 298 298 298 298 298 298 298 298 299 298 299 299 299 299 298 298 298 297 297 298 298 298 298 298 298 298 298 298 298 298 298 298 298 298 298 298 298
300 300 300 300 300 300 300 300 300 300 299 299 299 299 300 299 299 299 299 299 299 298 298 298 297 296 296 296 295 295 295 296 296 296 296 297 297 297 297 298 297 297 297 297 297 297 297 297 297 297 297 297 297 297 297 297 297 297 298 298 298 298 298 298 298 297 297 298 298 298 298 298 298 298 297 297 297 297 297 297 296 297 297 297 297
301 300 300 300 300 299 299 299 299 299 299 299 299 299 299 299 299 298 298 298 298 298 297 297 298 297 297 297 296 296 296 295 295 296 296 296 296 296 296 297 297 296 296 296 296 296 296 296 296 297 297 297 297 297 297 297 297 297 297 297 297 297 297 297 297 297 297 297 297 297 297 297 297 297 297 297 297 297 296 296 296 296 296 296 296
300 300 300 300 299 299 299 299 299 299 299 298 298 298 298 298 298 298 298 298 298 297 296 296 296 296 296 297 297 297 296 296 295 296 296 296 296 296 296 296 296 296 296 296 296 296 296 296 296 296 296 296 296 296 296 296 296 296 296 296 296 297 297 297 297 297 297 297 297 297 297 297 297 297 297 297 297 296 295 295 295 295 294 294 294
298 298 299 299 299 299 299 299 299 299 299 298 298 298 298 298 297 298 297 297 298 297 296 296 296 295 295 296 296 297 297 296 296 295 295 295 296 296 296 296 295 295 295 295 295 296 296 296 295 295 295 295 295 295 296 296 296 296 296 296 296 296 297 297 297 297 297 296 296 296 296 296 296 296 296 296 296 296 295 295 294 294 293 293 293
298 298 298 298 299 299 299 298 298 298 298 298 298 298 298 297 297 297 297 297 297 297 297 296 296 295 295 295 296 297 297 296 296 296 295 295 295 295 295 295 295 295 295 295 295 294 295 295 295 295 295 295 294 294 295 295 295 295 296 296 296 296 296 296 296 296 296 296 296 296 296 296 296 295 296 296 295 295 295 294 293 293 292 292 292
298 298 298 298 299 299 298 298 298 298 298 298 298 297 297 297 297 297 297 297 297 297 297 297 296 295 295 295 295 296 296 296 295 295 295 295 295 295 295 295 295 294 294 294 294 294 294 294 294 294 294 294 294 294 294 295 295 295 295 295 295 295 295 295 295 295 295 295 295 295 295 295 295 295 295 295 294 294 294 293 292 292 291 291 291
298 298 298 299 299 298 298 298 298 298 298 297 298 297 297 297 297 297 297 296 296 297 297 297 296 296 296 295 296 296 296 296 295 295 295 294 294 294 295 294 294 294 294 294 293 293 293 293 294 294 294 294 294 294 294 294 294 294 295 295 295 295 295 294 294 294 294 294 294 295 295 295 294 294 294 294 294 293 293 292 292 292 292 292 291
299 298 298 299 299 299 298 298 298 298 298 297 298 297 297 297 297 297 296 296 296 296 297 297 296 297 297 296 296 296 296 296 295 295 295 294 294 294 294 294 293 293 293 293 293 292 292 292 292 293 293 293 293 293 293 294 294 294 294 294 294 294 294 294 294 294 294 294 294 294 294 294 294 294 294 294 293 293 293 292 292 292 292 292 292
299 299 299 298 298 298 298 298 298 298 298 298 297 297 297 297 297 297 297 297 296 297 297 297 296 297 297 296 296 296 296 296 296 295 295 294 294 294 294 294 293 293 293 293 292 292 291 291 291 292 292 292 293 293 292 293 293 293 293 294 294 293 293 293 293 293 293 293 293 293 294 294 294 294 294 293 293 293 293 293 292 292 291 292 292
299 299 299 298 298 298 298 298 298 298 298 298 298 298 297 297 298 297 297 297 296 297 297 297 297 296 297 297 297 297 297 296 296 295 295 295 294 294 294 294 293 293 293 292 292 291 291 291 291 290 290 291 291 291 291 292 292 293 293 293 293 293 293 293 293 293 293 293 293 293 293 293 293 293 294 293 293 293 292 292 293 293 292 292 292
299 299 298 298 298 298 298 298 297 298 298 298 298 298 297 297 298 297 297 297 297 296 297 297 297 297 297 297 297 297 297 297 296 296 295 295 294 294 294 294 293 293 293 292 292 292 291 291 290 290 289 289 289 289 290 290 291 291 292 293 293 293 292 292 292 292 292 292 292 292 293 293 293 293 293 293 292 292 292 292 292 292 292 292 292
298 298 298 298 298 298 298 297 297 298 298 298 297 297 297 297 297 297 297 297 297 297 297 297 297 297 297 297 297 296 296 296 296 296 296 295 295 295 294 294 294 294 293 293 292 292 292 291 291 290 289 289 287 287 287 288 288 289 291 291 292 292 292 292 292 292 292 292 292 292 292 292 292 292 292 292 292 292 292 292 291 292 292 291 291
298 298 298 298 298 298 298 298 298 298 298 298 297 297 297 297 297 297 297 297 297 297 297 297 297 296 296 296 297 296 296 296 296 296 296 296 296 295 295 294 294 294 293 293 293 292 292 292 291 290 289 288 287 286 285 285 286 286 288 288 289 289 290 290 291 291 292 292 292 292 292 291 291 291 292 292 291 292 292 291 291 291 292 291 291
299 298 298 298 298 298 298 298 298 298 298 298 298 297 297 297 297 297 297 297 297 297 297 296 296 296 296 296 296 296 296 296 296 296 296 296 296 295 295 295 294 294 294 293 293 293 292 292 292 291 290 289 287 286 285 285 285 285 285 285 285 285 285 285 286 289 291 292 292 292 292 291 291 291 291 291 291 291 291 291 291 291 290 291 291
298 298 298 298 298 298 298 298 298 298 298 298 298 298 297 297 297 297 297 297 297 296 296 296 296 296 297 296 296 296 296 296 296 296 296 296 296 296 295 295 295 294 294 294 293 293 293 292 292 292 291 290 289 287 285 284 284 284 284 283 283 283 283 282 283 284 286 288 290 291 291 291 290 290 290 290 290 290 290 290 291 291 290 290 291
298 298 298 298 298 298 298 298 298 298 298 298 298 298 297 297 297 297 297 297 297 296 297 296 296 296 297 296 296 296 296 296 296 296 296 295 295 295 295 295 295 295 294 294 294 294 293 293 292 292 291 290 289 288 286 285 284 285 284 283 282 282 282 282 282 282 283 284 285 287 289 290 290 290 290 290 290 290 290 290 290 290 290 290 291
298 297 298 298 298 298 298 298 298 298 298 298 297 297 297 297 297 297 297 296 296 296 296 296 296 296 296 296 296 296 296 295 295 295 295 295 295 295 295 295 295 295 295 295 294 294 294 293 293 292 291 290 289 289 287 286 286 286 286 285 283 282 282 282 282 282 283 283 283 284 287 289 290 289 289 289 289 290 290 289 289 290 290 290 291
Wind_Speed
13 14 14 15 16 17 17 17 17 18 19 20 19 19 19 19 20 22 22 21 20 20 19 16 15 15 17 20 20 17 14 12 12 13 13 12 13 12 10 11 12 12 14 15 14 15 17 19 20 22 20 19 18 17 16 16 15 12 9 9 10 10 13 15 11 7 10 16 14 14 19 19 16 19 18 15 16 16 15 14 13 12 12 11 13
14 15 16 17 18 18 17 17 18 18 19 19 18 18 19 20 20 22 22 21 19 19 17 14 13 13 13 15 14 11 10 11 12 14 14 13 11 10 10 11 12 13 13 14 15 15 17 20 21 21 18 17 16 14 13 14 13 9 6 7 10 10 10 12 13 11 10 15 14 13 19 19 16 18 16 15 19 19 16 15 13 12 12 10 11
16 16 17 18 18 18 17 17 18 18 18 18 18 19 20 20 21 22 21 20 19 17 16 15 14 11 8 10 9 7 8 9 11 11 12 11 11 11 12 12 13 14 12 12 16 16 16 19 17 16 17 16 14 13 12 11 9 6 6 7 11 11 8 8 12 14 13 15 14 15 20 18 15 16 13 14 20 19 15 14 14 16 15 10 9
17 16 16 17 18 18 18 18 19 20 19 19 19 19 20 21 20 21 22 21 19 17 16 15 14 11 9 8 6 4 5 7 8 8 8 10 11 12 12 12 12 13 10 10 13 14 15 18 16 14 16 15 12 12 10 8 7 5 8 10 11 12 12 9 11 16 16 15 14 17 20 16 14 15 14 15 19 17 14 13 15 19 17 9 6
15 16 16 16 17 18 20 20 22 23 21 21 21 20 21 21 20 21 22 21 20 19 17 15 14 13 12 8 4 3 2 3 4 4 5 7 8 9 9 9 9 10 10 9 10 13 14 14 12 10 11 12 11 10 8 8 9 8 9 12 14 16 16 12 12 16 17 17 16 18 20 17 16 17 16 16 17 17 16 13 15 19 17 11 8
14 15 16 17 17 18 20 20 22 23 22 22 22 21 22 23 22 22 22 20 20 20 18 17 17 14 13 10 6 3 3 3 2 3 2 2 4 3 4 5 6 6 8 8 7 9 9 7 5 4 6 9 10 8 7 7 9 10 11 13 15 17 17 15 14 16 16 17 16 17 20 20 19 20 19 18 17 18 18 15 14 16 16 15 16
15 15 16 17 18 18 19 19 20 21 21 21 21 20 21 21 21 22 21 20 21 19 16 18 18 15 14 14 11 8 7 7 6 4 4 3 1 1 2 3 4 4 4 6 6 6 7 7 6 6 8 11 9 7 9 9 10 11 12 14 17 18 18 17 17 15 13 14 15 16 19 17 18 20 20 19 17 16 19 17 14 17 17 17 19
16 17 18 18 18 18 18 17 18 20 19 19 20 20 20 20 20 20 20 21 20 18 15 16 16 15 15 15 14 11 9 9 8 7 8 7 4 3 4 5 6 7 6 5 4 5 7 9 9 9 9 10 8 9 12 12 12 13 14 16 17 18 17 16 16 12 7 8 9 12 15 13 14 17 16 19 18 15 17 17 14 17 18 15 17
18 18 18 18 18 17 17 17 17 18 18 19 20 20 20 21 21 20 21 21 21 19 18 18 17 17 16 14 14 14 13 12 11 10 10 9 9 8 7 7 8 9 8 7 6 4 5 8 9 8 7 8 9 10 12 11 13 14 15 15 15 16 15 12 11 8 6 7 5 7 12 10 11 13 10 12 15 12 15 18 16 19 21 16 15
19 18 17 17 17 17 17 18 18 18 19 19 20 20 21 21 22 22 22 22 22 21 20 21 22 22 20 18 17 17 18 17 13 11 10 10 12 12 9 8 8 5 2 7 7 4 3 5 6 4 5 8 10 11 11 11 13 13 13 14 14 16 16 11 10 8 7 7 3 6 11 9 8 10 7 5 9 6 7 10 8 12 20 19 15
18 17 17 17 17 17 18 18 19 19 19 20 19 20 21 22 23 23 24 24 24 22 22 22 24 25 24 23 21 20 20 18 15 13 11 11 13 14 13 11 11 10 4 5 5 0 1 3 4 5 6 11 15 15 12 11 12 11 11 13 14 15 16 13 12 11 8 5 4 8 10 6 4 7 7 7 6 4 4 7 2 0 7 11 11
17 17 17 17 18 18 18 19 19 19 19 19 19 20 22 22 23 23 24 24 25 25 25 25 25 26 26 26 25 24 22 20 18 15 14 13 13 16 18 17 17 17 11 1 2 2 3 1 4 6 5 8 12 14 13 12 12 11 10 11 12 12 13 12 12 12 10 6 7 11 11 8 5 6 8 9 7 5 4 7 6 3 2 5 6
17 17 17 18 18 18 18 19 19 19 20 19 19 21 22 23 23 23 23 23 25 26 27 28 28 28 28 29 28 26 24 23 20 18 18 16 15 17 18 18 18 19 18 13 7 5 5 6 8 9 6 7 9 11 13 15 14 12 13 14 12 10 10 10 9 11 12 11 12 11 10 11 7 3 4 6 6 6 6 6 5 5 4 5 5
17 17 18 19 19 19 19 19 19 19 19 19 20 21 22 23 23 24 24 25 26 27 27 29 29 29 30 31 30 28 26 24 23 21 21 19 16 17 17 17 19 20 21 20 17 15 14 14 13 12 11 13 13 13 13 15 16 15 15 17 16 14 13 12 10 11 12 13 14 12 11 11 11 8 4 3 4 7 9 7 5 5 6 9 10
17 18 19 20 20 20 20 19 20 20 19 19 20 21 23 24 23 25 28 28 27 26 27 30 31 31 31 32 31 29 27 25 23 22 21 19 18 18 18 18 21 23 23 23 23 22 20 18 17 15 15 14 12 13 14 14 15 16 18 19 19 18 18 16 13 13 13 13 14 14 14 12 12 11 8 6 7 7 8 12 13 13 14 15 12
18 18 19 20 21 21 21 20 20 20 20 20 21 21 22 23 23 24 26 28 28 28 29 32 34 34 34 33 33 32 29 26 24 21 19 18 17 17 17 17 19 22 23 24 23 23 22 20 19 19 18 17 13 13 14 14 15 16 19 21 21 22 22 19 15 13 13 14 14 14 14 12 11 10 9 9 9 8 11 15 15 15 16 14 10
18 19 19 20 20 20 21 21 21 20 20 21 22 22 22 22 21 22 23 25 27 27 28 33 36 37 36 36 36 35 32 28 24 21 19 18 17 17 17 18 20 22 24 23 22 23 23 22 20 19 19 20 17 13 13 14 15 16 18 20 20 22 22 20 18 16 15 15 15 13 12 10 9 9 8 8 9 7 8 11 11 12 15 12 8
18 19 19 19 19 19 20 20 20 21 21 21 21 22 23 23 22 22 23 24 25 24 26 30 34 36 37 36 35 35 34 30 25 22 20 19 20 21 20 21 23 24 24 23 21 21 22 22 21 21 20 19 19 16 13 13 16 17 17 19 20 20 18 16 16 17 17 16 16 15 14 12 11 10 9 8 9 8 8 9 7 10 13 11 8
18 19 19 19 19 20 20 20 21 21 22 23 22 21 21 21 21 21 22 23 24 25 26 28 30 33 35 36 36 35 35 32 27 24 22 20 20 22 22 22 23 23 24 24 22 20 20 21 21 22 20 18 17 17 15 14 15 17 17 18 19 17 14 13 14 16 16 16 16 16 17 16 15 15 14 12 12 13 13 11 8 10 13 13 12
18 19 19 19 19 20 20 21 22 22 22 23 24 24 24 23 22 22 22 22 22 25 27 28 30 31 32 34 36 36 36 34 31 27 25 22 20 20 21 22 22 22 22 23 24 23 21 21 21 20 18 17 16 15 13 12 13 16 17 18 19 16 14 14 16 16 16 16 16 16 16 16 16 17 16 15 14 13 14 13 12 11 11 12 12
18 19 20 20 20 20 20 21 22 22 22 22 23 24 25 26 25 24 24 23 23 24 26 28 30 31 31 32 33 34 35 34 33 31 28 26 24 21 20 20 19 20 22 24 25 26 25 24 23 21 18 16 16 16 15 14 15 17 18 18 17 15 16 17 16 15 15 15 14 14 14 15 16 17 17 17 15 13 12 12 13 13 13 13 14
17 18 18 19 20 21 21 22 22 22 22 22 22 23 23 24 24 24 23 23 22 23 24 25 26 28 31 32 32 32 32 32 32 32 31 29 27 26 23 20 18 20 23 25 26 27 26 25 24 21 19 18 18 18 18 18 19 20 19 18 16 15 16 17 16 15 14 15 14 14 15 16 16 17 18 18 17 15 13 12 13 15 19 20 18
16 17 17 18 18 18 19 20 21 21 22 23 23 23 22 22 23 23 22 22 21 21 22 22 22 23 27 30 31 30 29 29 30 30 30 29 28 27 26 24 22 23 26 27 25 24 24 23 22 20 20 20 20 20 20 20 20 20 18 17 17 18 18 18 17 16 16 16 17 17 16 16 17 18 17 16 15 15 14 13 13 16 21 22 21
16 16 17 18 18 19 19 19 19 20 22 23 24 24 24 23 23 22 22 21 21 21 21 21 21 21 22 24 27 29 28 27 27 27 27 27 27 26 26 25 25 25 26 26 24 23 22 21 20 19 20 21 22 22 22 21 20 19 19 18 18 19 19 18 17 16 16 16 16 17 16 15 16 15 13 12 12 11 12 12 11 12 15 18 18
17 17 17 18 18 19 20 20 20 20 22 24 26 26 26 25 24 23 21 20 20 20 20 20 20 20 20 21 23 26 28 28 27 26 25 25 25 25 25 25 24 25 26 25 23 22 20 19 18 19 20 21 21 22 22 21 20 19 19 19 18 18 17 16 15 15 15 14 14 14 14 12 12 11 9 8 8 9 10 12 12 12 14 14 14
16 16 17 18 18 18 20 22 23 22 22 23 26 28 28 28 26 25 23 21 20 19 19 20 19 19 19 20 21 24 27 29 28 27 25 24 24 22 22 22 22 23 23 22 21 21 20 19 19 19 19 20 19 20 20 19 19 19 18 18 17 17 16 14 14 14 14 13 12 12 11 10 9 8 6 6 8 9 9 10 12 13 16 17 16
15 15 15 15 15 16 18 20 23 24 22 21 23 26 28 30 31 30 28 24 21 19 19 19 20 19 18 17 19 22 25 28 28 27 26 24 23 22 20 19 19 19 20 20 19 19 19 18 18 17 17 17 16 16 16 16 16 16 15 15 15 14 13 12 11 12 12 11 11 10 9 8 7 6 6 7 8 7 6 7 9 12 15 17 18
14 14 14 13 13 14 14 16 19 23 24 23 22 22 24 28 31 31 30 27 24 21 19 18 18 19 18 16 16 19 23 25 25 24 23 23 22 21 20 19 18 17 16 16 15 15 15 15 15 15 14 13 12 12 12 12 12 12 12 12 12 11 10 8 7 8 9 9 9 8 7 7 8 8 8 9 7 5 5 6 6 8 12 14 15
14 13 13 13 13 13 12 12 13 17 21 24 24 22 21 24 27 28 29 29 28 26 23 19 15 16 18 18 16 17 20 22 21 20 20 20 19 19 18 18 18 16 15 13 12 11 11 12 12 12 12 11 10 10 10 10 11 11 11 11 11 11 10 8 7 8 7 7 7 8 7 6 6 6 7 7 6 4 4 5 4 3 5 9 13
15 15 14 14 14 14 14 13 11 11 14 18 21 22 21 21 24 26 28 29 30 31 30 24 17 13 14 16 17 17 17 18 18 18 17 17 17 16 15 14 15 15 15 14 14 13 13 13 13 12 11 11 10 10 11 11 11 11 12 12 12 12 11 9 8 7 6 5 6 6 5 4 4 4 6 6 4 4 3 2 2 3 4 2 11
14 14 14 14 14 14 15 15 13 11 10 11 14 16 18 19 20 22 24 26 28 31 32 30 25 19 14 12 13 14 15 16 16 16 15 14 15 15 14 13 14 14 14 15 17 17 15 14 14 14 13 12 11 10 10 10 10 10 11 11 12 12 10 9 8 7 5 4 5 5 6 7 6 6 6 4 2 3 4 6 6 7 4 6 13
13 13 13 14 14 14 14 15 16 15 13 11 10 10 12 13 14 17 20 23 26 28 30 31 31 28 23 18 16 14 14 15 15 15 14 15 15 14 13 13 13 13 13 13 15 16 15 14 14 14 14 13 11 11 11 10 10 10 10 10 10 9 8 8 8 7 5 4 5 5 5 6 7 7 7 6 4 5 6 8 9 11 13 16 18
16 14 13 13 14 15 15 15 15 15 15 15 14 12 11 10 9 10 12 15 21 26 27 27 29 30 30 27 24 21 18 16 15 16 17 18 18 15 14 15 17 17 16 15 16 18 18 17 16 17 17 16 14 13 13 12 10 10 10 9 9 8 7 6 7 6 5 5 6 7 6 5 6 7 7 7 8 8 7 7 9 12 14 16 16
19 19 17 15 14 15 15 15 15 15 15 15 15 14 14 14 12 8 6 8 12 19 22 22 23 26 27 28 28 26 24 21 19 19 21 22 20 17 15 16 18 20 20 19 18 19 19 18 17 17 17 17 16 16 16 14 13 13 11 8 7 8 7 6 6 6 5 4 6 7 6 4 4 4 4 5 6 7 6 6 8 10 10 10 10
16 17 17 16 15 15 15 14 15 15 14 14 15 14 13 14 15 15 11 8 10 14 16 16 17 18 20 23 25 25 25 23 21 20 22 22 21 19 18 17 17 18 18 18 17 18 18 18 17 16 15 15 16 16 16 15 15 16 15 12 9 8 8 7 6 6 5 4 4 3 2 1 2 2 2 3 5 7 9 11 11 12 11 10 9
13 13 14 15 15 15 14 14 14 15 14 14 14 14 14 13 14 15 15 14 15 17 17 15 16 15 14 15 18 19 20 22 22 21 20 20 20 20 21 20 18 17 17 16 16 16 16 17 17 17 17 16 16 16 16 15 15 14 15 14 11 8 8 7 6 5 6 4 3 1 1 1 3 2 2 4 8 10 12 12 12 14 14 13 12
13 13 13 13 13 13 13 12 12 13 14 14 13 13 14 14 14 13 13 13 15 18 18 17 18 17 14 14 17 16 14 17 21 21 20 20 19 19 21 21 20 19 18 17 16 14 14 15 15 16 17 17 17 16 15 15 14 13 13 13 11 8 7 6 4 5 6 3 2 2 3 2 3 2 2 5 8 10 10 9 10 11 13 14 15
16 16 16 14 13 12 13 12 11 11 13 14 13 13 13 13 13 13 12 13 13 14 15 15 17 18 16 16 18 17 14 15 18 19 19 20 20 19 19 19 19 19 19 18 18 16 13 12 12 13 15 16 16 16 14 13 13 12 12 12 10 6 4 3 2 3 4 2 1 1 1 2 4 5 4 5 5 6 7 8 9 10 12 14 15
14 14 14 14 13 13 12 12 12 12 11 11 11 11 12 12 13 12 12 12 12 11 12 13 15 17 16 15 16 17 15 15 17 18 18 19 19 18 18 18 18 18 18 17 18 18 16 13 12 12 13 13 13 14 13 12 12 12 11 11 9 6 4 3 2 1 2 2 1 2 2 2 3 6 7 8 8 7 7 9 11 12 12 11 10
11 10 10 10 10 12 12 12 12 11 11 11 11 10 9 10 11 11 11 11 12 12 13 13 14 15 16 14 14 14 14 14 15 16 16 17 17 16 16 16 16 17 16 15 16 17 17 15 12 10 10 11 11 12 12 11 11 12 12 12 11 10 9 10 9 8 9 10 10 9 9 7 4 5 7 8 8 7 8 10 11 11 10 8 6
11 11 11 9 8 11 13 13 11 10 10 10 10 9 8 8 9 9 9 10 11 12 12 11 11 12 14 15 14 13 12 12 13 14 14 14 14 14 14 14 14 15 14 13 14 15 16 16 13 10 9 10 10 11 13 12 11 12 12 11 10 10 10 11 11 11 12 14 13 11 12 11 9 9 11 8 5 5 5 6 7 7 8 7 7
9 9 9 8 7 9 12 12 10 10 9 9 9 9 9 10 10 10 11 11 10 11 11 10 9 8 10 13 14 13 12 11 11 12 13 12 11 12 12 13 14 14 13 12 14 14 13 14 13 12 10 10 9 10 13 12 11 13 14 11 9 10 11 10 10 11 11 12 12 10 8 9 8 7 7 4 2 3 5 6 7 7 6 5 5
9 8 7 7 7 8 11 12 10 8 6 6 5 6 8 10 11 13 13 12 12 12 11 11 10 8 8 10 12 13 13 12 11 11 11 11 10 11 11 11 13 13 11 11 14 13 11 11 11 10 10 10 9 9 11 10 9 12 14 12 9 10 12 10 9 10 10 10 10 8 5 5 4 2 3 2 2 4 7 6 5 5 4 4 4
8 9 8 7 6 6 9 11 10 6 3 2 2 3 7 9 9 9 10 11 10 9 9 8 9 8 7 7 8 9 11 11 11 10 9 9 10 11 10 10 11 11 8 8 12 13 12 10 9 9 9 9 8 7 8 8 8 9 11 10 8 9 10 8 6 8 9 9 9 8 6 5 4 1 2 2 4 4 5 3 1 2 4 5 6
5 5 5 5 6 8 9 9 7 4 2 2 2 3 6 7 7 6 7 8 7 6 5 4 4 5 5 5 5 6 6 7 9 9 8 7 8 8 7 8 10 10 7 6 9 12 13 11 9 8 8 8 9 8 6 6 7 8 8 7 7 7 6 6 5 6 7 8 9 9 9 9 9 7 4 3 3 1 4 4 2 1 3 4 5
3 2 2 5 7 7 8 8 6 4 2 4 5 4 5 6 5 4 5 5 5 5 6 5 4 5 6 7 8 8 7 7 7 8 8 8 7 6 5 7 9 9 7 7 8 9 10 10 10 9 9 9 10 9 5 4 6 7 5 5 6 5 5 7 8 7 6 6 7 8 8 10 11 9 5 4 4 2 4 6 4 1 1 3 3
3 2 3 3 4 3 5 7 5 3 3 4 4 3 3 4 4 4 4 5 5 6 6 7 8 8 9 10 11 11 10 9 8 7 7 7 7 6 6 6 6 7 8 9 9 6 7 9 11 10 9 10 11 10 6 4 5 6 5 6 8 8 8 9 10 10 8 7 7 7 6 7 9 7 6 5 5 2 2 3 2 3 1 2 3
3 3 3 2 2 3 4 4 3 2 2 3 4 4 4 4 5 5 6 7 8 8 8 9 9 10 9 10 10 11 11 10 9 8 7 6 7 7 7 6 6 7 8 9 8 6 7 10 12 11 10 9 9 10 8 5 5 6 8 9 9 10 11 11 11 11 11 10 9 8 6 4 4 6 6 5 4 2 2 3 2 4 4 3 3
1 3 3 1 2 2 2 0 1 1 2 1 3 5 6 7 7 7 7 7 8 10 10 9 9 10 9 9 9 9 10 10 9 9 9 8 8 8 8 8 7 6 6 7 8 9 10 10 11 11 10 9 9 9 8 6 6 8 10 10 10 10 10 10 10 10 11 11 11 9 7 4 3 5 6 5 4 4 5 4 3 1 3 3 3
2 1 1 1 1 2 2 2 3 3 2 2 3 4 5 7 7 8 8 7 8 8 9 10 10 10 11 11 10 9 8 9 9 9 10 9 8 7 8 9 8 7 6 7 8 9 10 10 10 10 10 10 10 10 8 7 9 11 13 13 12 11 10 10 11 11 10 11 11 10 8 5 3 4 4 4 4 6 7 5 3 1 1 2 3
3 2 3 2 1 2 3 2 3 4 4 5 4 4 4 5 5 6 7 9 9 9 9 9 9 9 9 10 11 10 9 9 8 8 9 9 8 7 7 8 9 9 8 8 8 9 9 10 10 9 7 7 9 9 8 8 11 14 16 15 14 12 10 10 11 11 11 10 10 10 10 7 4 4 6 6 5 5 6 7 7 6 5 4 3
Wind_Direction
3 360 359 357 353 349 346 342 339 338 339 340 341 344 347 347 345 343 342 341 337 334 331 323 314 309 306 301 287 266 247 233 227 223 216 213 216 208 193 186 182 181 188 191 193 200 208 211 213 213 211 211 212 212 214 215 213 213 211 206 203 178 171 187 185 157 179 183 173 173 175 174 176 175 176 182 172 166 184 197 202 206 202 201 203
6 5 5 1 356 353 351 345 341 342 345 347 347 348 351 352 350 349 348 344 342 342 345 342 329 321 317 305 284 253 234 227 220 219 215 207 203 196 188 181 177 186 194 193 193 198 207 211 210 210 208 207 211 208 208 216 215 204 188 204 216 196 177 185 177 157 164 176 175 170 172 179 182 174 175 176 166 166 185 198 199 198 192 186 188
12 11 8 3 1 0 355 348 347 350 352 352 351 350 354 358 357 354 352 350 352 356 0 0 348 336 333 316 288 244 226 225 212 211 211 197 190 194 194 188 184 191 198 202 201 199 209 216 210 206 207 208 213 211 206 208 207 187 156 185 223 215 195 190 174 158 157 169 177 173 175 186 182 170 175 174 166 169 188 196 186 182 184 175 171
18 17 11 6 7 7 1 357 360 2 360 357 357 356 359 1 1 360 359 359 3 8 10 10 4 360 12 358 314 265 231 232 214 202 202 198 201 204 201 197 197 194 189 202 209 205 214 220 212 208 209 208 213 215 205 192 197 192 160 175 205 198 191 202 180 164 160 162 172 177 178 183 174 165 171 171 171 177 183 188 186 182 179 170 161
22 21 15 11 12 12 9 8 10 10 9 9 9 7 9 11 9 7 5 5 9 13 15 16 14 17 33 34 346 306 287 260 234 215 210 208 209 212 210 208 206 197 189 197 208 208 215 221 217 216 211 207 214 211 193 189 206 202 174 185 200 187 183 192 175 166 165 161 171 179 177 177 171 167 170 172 182 187 178 186 196 180 170 174 185
26 25 19 17 17 17 16 14 14 15 14 15 12 10 15 18 16 14 13 15 16 18 24 30 29 33 47 58 56 42 37 20 336 304 287 224 207 219 231 224 222 216 202 200 211 216 220 226 235 237 206 207 220 212 190 197 207 193 171 181 193 181 181 187 175 169 168 169 180 178 172 178 176 171 173 176 188 190 176 183 194 174 166 180 184
30 27 23 22 21 21 20 16 15 16 16 15 12 10 13 15 16 16 18 22 23 23 33 43 42 41 48 54 57 60 59 53 40 22 12 4 285 276 329 281 269 273 233 223 242 248 246 247 255 252 219 209 213 206 199 196 194 188 172 176 187 180 180 188 181 172 169 178 186 173 168 179 177 172 175 175 188 196 177 176 183 168 169 182 178
31 29 25 24 23 22 21 19 18 18 18 17 16 14 14 15 17 19 20 25 30 30 33 39 40 42 49 54 54 55 57 51 43 39 30 18 9 357 348 340 327 322 308 284 276 265 252 246 252 256 233 218 212 207 207 192 182 190 184 180 188 186 185 188 179 169 159 164 170 163 167 178 170 171 177 172 185 200 176 174 182 166 166 179 180
32 31 27 25 23 22 22 22 21 21 21 21 20 20 19 19 22 23 22 28 36 41 41 43 45 48 53 55 51 48 47 41 30 26 27 25 16 355 340 347 344 327 305 286 277 260 233 226 237 250 234 223 218 211 210 189 172 186 188 175 174 182 185 177 158 144 127 130 135 153 162 165 168 184 195 175 184 199 173 174 187 174 168 175 181
34 30 29 26 25 25 26 26 25 25 25 25 25 24 24 26 29 31 33 35 40 46 47 46 46 47 48 47 44 41 39 37 31 24 24 24 16 6 353 351 4 14 311 278 274 257 219 213 221 221 192 192 193 191 195 183 174 190 194 175 163 167 171 159 136 140 155 152 166 171 157 152 170 192 215 184 178 197 166 161 175 173 172 174 178
36 29 30 29 27 29 30 29 29 29 29 29 29 28 28 31 33 36 39 41 44 47 48 48 47 46 46 45 42 40 37 36 35 33 30 23 21 27 29 25 30 41 28 282 271 162 145 196 167 129 140 162 165 163 165 166 170 183 186 177 165 156 161 159 146 156 178 172 188 196 174 158 179 197 208 199 191 210 176 155 121 83 173 172 167
38 30 29 29 30 32 31 30 32 32 32 32 31 31 32 34 34 35 38 39 42 46 48 50 52 51 49 46 44 44 42 37 35 34 33 29 34 43 45 43 43 44 50 89 237 22 31 52 91 94 130 158 149 142 141 143 154 160 156 163 166 156 161 168 159 162 173 170 193 206 186 167 193 213 196 198 225 252 201 169 180 222 209 172 167
39 33 30 30 32 33 33 33 34 34 33 33 32 33 34 36 35 35 37 40 43 44 45 47 49 51 50 47 45 47 46 45 45 43 38 35 38 44 45 48 52 52 62 80 88 83 91 86 76 81 110 128 119 120 124 122 124 128 126 129 133 131 141 159 166 169 168 170 182 185 159 147 154 159 167 192 215 196 159 144 168 202 209 187 186
40 35 33 33 34 35 36 36 36 36 35 34 35 35 36 38 38 38 42 45 45 42 42 44 46 49 49 46 47 48 48 50 53 51 46 41 38 42 50 58 60 57 58 67 77 90 101 98 87 82 91 102 111 121 122 113 108 112 117 117 112 106 109 123 140 151 154 161 162 147 130 134 133 122 137 178 159 146 146 155 180 192 183 174 172
42 39 37 36 36 38 39 38 39 38 37 36 37 38 38 39 41 43 47 49 48 46 44 44 46 48 48 47 47 48 47 49 55 54 50 47 44 46 53 59 62 60 56 60 72 84 92 92 86 78 72 77 101 125 126 118 111 110 110 106 102 99 99 106 123 135 137 140 138 129 127 130 128 128 136 134 119 117 131 151 166 169 159 152 149
45 42 40 38 39 40 41 42 42 42 41 40 39 38 38 39 40 42 45 48 50 50 48 48 48 48 48 47 46 46 45 45 51 53 51 50 48 48 52 56 60 63 59 58 67 74 79 81 79 75 66 59 78 118 127 115 104 99 95 90 86 86 85 87 98 111 118 120 118 117 118 119 120 124 125 120 118 120 125 132 143 152 146 133 124
48 45 43 42 41 41 43 45 44 42 42 42 41 41 42 42 39 39 41 44 46 46 46 49 50 50 49 47 45 45 45 45 47 51 55 59 61 63 69 70 68 68 65 64 67 67 67 69 70 71 65 56 63 92 115 112 101 91 87 83 78 76 74 74 79 84 87 93 97 100 102 103 110 116 118 118 117 119 123 120 124 139 139 128 115
51 48 47 46 44 44 45 45 44 42 41 41 40 41 44 45 44 42 43 45 44 44 45 47 49 50 50 49 47 46 46 46 47 52 57 64 66 66 71 75 73 72 70 70 71 65 61 61 60 59 58 53 54 64 79 96 100 93 87 85 80 76 72 70 72 73 72 73 78 82 84 84 86 89 92 104 112 112 106 99 113 144 146 139 122
55 53 52 51 51 50 48 46 46 46 44 42 41 40 41 43 44 44 46 46 45 46 47 47 47 48 48 49 50 50 48 45 45 48 52 58 62 62 65 68 69 69 69 70 73 69 61 58 55 52 50 48 48 52 53 63 83 90 89 86 82 78 78 80 80 79 76 73 72 74 76 75 75 75 78 88 101 108 104 96 106 135 144 148 140
59 57 55 54 53 52 49 48 48 48 46 46 46 46 46 46 48 48 48 48 48 47 48 49 49 48 47 47 49 50 50 48 46 47 47 48 53 59 61 59 58 60 62 62 65 66 62 58 55 52 49 48 50 54 55 59 80 92 93 88 84 82 84 88 88 87 84 79 75 76 77 76 76 76 76 78 86 95 99 98 100 110 129 148 147
61 59 58 56 54 52 50 49 49 48 48 48 47 48 47 47 49 49 48 48 49 49 49 50 50 48 47 48 48 49 51 52 50 49 49 46 46 50 55 56 56 60 60 57 57 61 62 60 58 55 56 61 65 73 80 85 91 93 91 90 93 95 93 87 84 85 87 86 85 86 86 86 84 82 80 78 79 81 85 89 88 89 103 123 127
63 62 61 59 57 56 53 52 51 49 47 46 45 44 43 42 43 43 44 45 47 48 47 47 48 47 46 47 48 49 50 53 54 53 51 50 49 49 52 56 59 62 62 58 57 59 61 62 62 61 64 71 77 82 87 90 90 88 88 92 96 97 95 89 83 83 87 88 89 92 93 93 90 88 86 83 80 79 80 81 84 90 101 110 112
66 65 63 60 58 56 54 53 52 49 46 44 44 42 40 39 39 39 40 41 42 43 43 42 43 44 43 43 45 47 49 52 55 55 53 52 52 53 54 56 58 61 63 60 58 58 59 61 62 63 67 72 76 79 81 82 82 80 81 86 88 88 90 87 81 81 84 84 86 90 93 96 97 95 94 91 87 88 89 87 92 100 105 106 104
67 66 65 63 59 56 53 51 52 52 49 46 43 41 39 38 37 37 37 38 40 40 40 40 41 41 41 39 40 43 46 49 53 56 57 56 54 54 56 56 57 58 59 57 55 53 55 58 61 64 68 71 73 75 74 73 73 72 71 73 76 78 80 77 74 77 79 77 78 82 87 94 96 91 86 88 93 95 94 94 98 106 109 110 107
70 67 65 65 63 60 56 52 51 54 53 50 46 44 42 41 38 36 35 36 38 39 38 38 40 41 42 40 37 39 44 48 50 53 57 58 58 56 57 57 57 57 57 54 52 51 52 55 59 62 63 65 67 66 64 63 63 63 63 63 64 66 69 69 69 70 72 73 75 79 84 87 89 85 76 81 98 101 94 95 99 101 103 106 106
74 72 70 69 68 66 63 59 57 59 59 56 53 50 49 48 44 41 39 36 35 36 37 38 38 38 42 43 39 37 41 45 48 50 52 55 57 56 57 58 59 59 59 55 53 53 53 53 53 53 53 54 55 57 57 57 57 58 58 55 54 55 57 61 67 67 67 71 74 77 78 78 82 85 79 88 109 110 104 107 115 115 108 100 96
74 74 72 72 72 74 73 68 65 65 64 61 58 55 54 54 53 50 46 42 37 35 35 37 37 35 37 41 40 39 40 42 45 46 47 49 50 51 53 55 56 58 60 57 53 51 50 49 47 45 46 48 50 52 54 54 54 55 54 50 49 48 44 46 56 62 63 66 67 70 73 73 74 75 73 86 101 100 95 109 126 132 124 110 100
76 73 70 69 69 73 78 76 70 69 69 69 66 62 59 59 59 58 54 50 46 43 41 42 42 40 39 42 42 40 39 39 40 41 41 42 42 43 45 46 47 50 52 54 54 52 51 51 47 41 39 42 48 51 51 53 54 56 58 57 56 56 52 44 45 56 65 70 69 67 71 75 75 72 70 78 83 75 79 92 102 127 136 129 120
71 69 67 66 63 62 70 81 81 77 75 75 74 72 69 65 64 64 62 58 56 52 50 50 50 48 48 49 48 43 38 37 38 39 39 37 36 37 39 41 42 43 44 46 48 48 51 53 49 42 36 36 42 46 46 47 50 52 55 57 55 54 55 52 52 58 64 68 64 63 72 79 76 69 67 69 71 75 91 97 85 104 144 140 131
69 64 60 60 62 59 57 65 80 89 88 85 81 78 75 72 70 68 66 64 61 56 52 51 51 52 52 50 48 45 40 37 38 40 41 40 38 36 37 40 43 46 46 45 44 45 48 49 45 41 39 39 40 43 41 41 43 45 47 50 49 47 46 50 55 55 59 72 73 67 64 55 51 63 62 59 72 84 74 60 31 343 298 156 121
81 74 65 60 63 65 60 57 62 74 87 95 93 86 80 77 74 71 69 68 66 60 53 49 49 50 51 47 42 40 39 38 37 36 36 40 42 44 46 48 51 53 51 47 46 45 44 45 45 42 42 44 43 42 40 36 34 37 39 41 44 45 44 45 42 32 33 63 75 63 48 45 59 81 71 51 79 92 46 31 28 16 17 97 104
75 78 77 68 63 65 65 60 56 57 61 67 77 86 87 85 83 79 72 69 69 65 57 50 49 49 49 47 42 36 34 35 33 29 28 28 26 28 37 43 41 39 39 40 42 40 37 38 39 36 33 35 33 30 29 28 28 29 29 30 38 45 45 37 29 22 25 39 45 49 50 49 60 70 59 47 68 74 49 43 49 55 69 86 90
56 62 73 73 66 63 63 62 59 55 52 52 53 57 64 70 82 94 88 75 70 67 60 53 50 49 48 49 49 45 41 39 36 29 26 24 20 20 32 40 37 33 33 35 35 35 35 36 34 31 29 30 28 24 23 24 25 22 20 24 32 34 34 30 22 24 39 42 38 51 68 70 58 49 40 43 56 56 53 66 72 68 71 77 81
59 59 63 66 65 61 58 58 59 58 55 52 50 50 53 53 51 60 92 100 84 71 61 52 49 50 49 49 52 51 48 46 45 40 35 33 35 41 49 52 48 42 38 35 32 31 32 31 29 28 29 28 27 25 24 23 22 16 13 16 21 22 29 32 24 27 44 47 40 50 66 79 68 47 41 60 68 61 59 73 77 76 78 83 88
77 71 69 69 67 64 61 57 55 55 56 55 52 48 50 54 51 43 41 54 71 69 56 41 37 44 49 50 51 52 52 47 43 43 42 39 38 40 41 44 51 52 45 39 36 34 30 24 21 21 23 24 24 23 21 20 20 18 20 27 33 37 42 38 23 22 34 51 62 56 33 2 34 34 57 92 82 64 56 56 62 70 78 86 91
81 77 76 75 71 66 64 62 60 59 55 54 56 54 49 52 57 50 39 38 54 64 57 36 23 24 32 36 36 41 50 49 39 34 38 40 37 35 32 31 37 45 46 42 41 40 34 26 18 17 20 23 22 20 18 15 14 16 21 24 26 35 44 41 30 21 25 50 86 63 306 48 70 80 119 91 71 63 57 55 62 67 68 73 79
68 65 71 79 80 74 68 65 69 73 67 58 55 56 53 50 53 54 45 41 55 68 64 45 30 23 19 17 15 17 34 48 41 33 31 33 35 39 38 32 27 29 32 33 35 38 41 34 23 18 18 19 19 18 18 15 12 12 14 13 12 19 32 30 23 21 26 52 85 7 2 61 59 48 118 89 64 59 57 54 63 67 62 67 74
72 68 69 73 75 74 69 62 59 67 74 69 60 57 59 56 50 49 47 41 52 73 77 58 39 30 23 16 16 19 31 44 42 37 32 29 30 36 38 35 30 26 24 23 22 24 32 39 36 28 20 16 15 15 14 12 10 7 4 4 10 26 41 34 40 43 41 76 134 32 55 97 39 33 83 107 85 69 64 62 71 72 65 67 70
83 81 80 77 73 71 70 65 59 54 58 68 69 65 65 63 55 49 44 36 39 60 79 74 56 42 33 23 18 22 31 37 37 36 33 29 27 29 32 33 32 28 24 21 17 13 15 28 42 41 28 19 14 11 8 6 5 2 357 356 3 17 23 10 5 358 355 1 44 71 99 120 55 46 71 90 93 89 77 71 75 74 68 69 66
89 83 84 88 88 82 73 68 65 54 42 48 60 63 66 73 71 61 47 36 32 40 60 77 74 54 41 33 21 13 18 30 35 34 31 28 25 23 27 31 30 24 22 26 23 13 7 12 29 41 32 22 16 10 5 2 1 0 0 2 7 12 13 13 15 19 22 27 37 46 48 50 67 92 90 84 85 87 78 74 77 75 72 79 76
107 95 88 89 96 95 85 74 67 59 47 42 41 38 45 64 75 73 65 49 34 33 49 76 84 61 41 34 26 16 18 30 35 31 30 32 26 18 21 31 29 20 19 29 31 18 4 5 20 35 28 13 8 8 8 8 6 3 2 5 9 8 7 9 11 14 20 20 20 30 42 46 60 94 103 97 95 101 97 97 101 96 92 97 95
106 97 88 81 81 92 94 86 72 62 59 53 36 21 26 36 39 47 62 59 37 27 39 58 66 52 33 26 23 21 22 29 36 33 30 30 27 21 25 32 28 21 23 31 29 19 7 5 15 25 19 5 0 2 2 3 9 10 7 8 11 9 10 12 10 9 14 10 1 9 41 51 51 76 99 106 165 167 138 120 114 110 108 113 115
120 117 110 99 91 98 105 99 83 64 65 78 65 30 28 37 30 26 37 44 33 21 27 38 37 25 15 16 22 23 16 15 26 34 28 22 25 29 31 29 22 19 25 28 19 12 11 9 6 6 6 4 3 1 354 346 352 4 5 3 3 6 12 17 15 11 15 14 1 358 19 32 25 73 121 77 56 110 117 110 109 124 143 157 149
134 127 123 118 109 105 110 106 92 73 65 108 98 34 30 46 47 30 25 32 28 14 13 26 26 12 359 7 23 24 11 4 10 21 26 27 27 25 26 29 23 15 14 17 10 8 15 17 4 354 356 355 348 349 355 350 342 348 355 355 353 359 10 18 13 3 3 2 354 347 343 346 358 69 144 54 39 91 127 132 116 124 129 130 127
116 106 117 129 106 85 89 92 78 57 52 69 55 32 30 37 45 41 30 26 18 0 349 357 6 354 345 360 24 26 14 5 3 6 12 24 27 19 17 25 20 7 358 6 10 8 10 9 357 347 349 342 328 328 346 359 348 339 340 343 340 340 349 349 336 336 344 344 344 352 3 14 23 32 52 53 41 130 173 171 155 108 108 113 114
96 55 67 121 107 84 88 94 70 25 35 59 41 31 36 30 19 22 27 11 344 328 329 338 358 10 16 25 26 19 15 15 12 7 6 8 11 12 9 7 8 7 3 358 359 5 9 6 356 348 343 341 342 344 350 1 357 346 329 320 320 318 319 316 306 301 311 319 324 340 8 23 22 16 19 39 38 57 125 126 127 129 92 107 129
118 50 36 96 109 90 100 109 95 42 41 49 19 355 28 29 360 353 12 355 326 321 339 357 11 24 35 36 24 12 12 20 18 11 7 360 355 1 7 359 360 12 7 348 336 344 5 4 358 352 344 340 347 352 350 347 350 337 306 296 301 301 301 302 295 288 289 297 302 312 340 11 15 5 4 25 29 32 105 116 179 236 209 132 175
169 115 71 43 53 67 82 101 108 94 74 40 340 325 357 14 356 360 14 2 342 341 355 7 10 15 29 36 23 8 11 18 11 3 7 8 359 359 3 356 353 5 5 350 335 336 349 350 350 353 352 342 336 338 338 331 317 303 297 302 306 303 300 299 291 281 277 279 284 290 295 314 338 337 342 10 33 29 342 343 290 221 202 192 200
130 99 91 47 16 48 68 35 2 67 90 24 323 334 354 358 352 355 5 1 351 348 352 359 4 7 16 29 25 8 4 6 3 1 8 12 7 359 352 345 346 355 358 350 341 337 334 330 331 338 345 343 337 340 341 329 310 307 313 320 324 321 316 312 304 291 278 270 269 272 269 264 295 315 316 320 315 286 287 319 349 150 177 186 197
107 341 216 168 15 340 328 349 357 352 352 6 6 1 357 350 346 348 351 351 348 346 346 353 2 4 4 10 14 9 0 359 360 1 1 1 4 4 352 342 342 345 343 340 338 332 325 322 322 324 330 338 347 353 351 328 316 323 328 327 324 324 325 323 319 311 297 277 262 253 246 243 260 283 282 287 298 286 270 265 284 307 229 212 215
149 236 228 183 201 270 284 333 344 333 339 356 1 353 339 328 324 333 340 341 343 347 349 351 354 354 352 352 353 353 352 354 358 360 355 349 349 355 352 344 339 336 329 326 328 328 326 326 324 319 317 326 338 344 343 332 325 328 330 328 325 324 326 328 328 325 315 294 265 238 226 226 239 257 257 259 277 289 271 245 236 239 238 236 245